This demonstration page uses our WeatherBlox Daily Observations layout. Learn more.

Left ArrowRight Arrow

38.20091, -84.87328

Hourly Observations for May 20, 2022

Temp ( °F °C ) Dew Point ( °F °C ) Humidity (%) Winds ( mph kmh ) Pressure ( in mb ) Visibility ( mi km ) Precip ( " mm )
12:53 am 00:53 Clear 72 22.2 68 20 87 87 SSE 9 15 29.65 1004 10 16 0.00 0.00
1:53 am 01:53 Clear 71 21.7 67 19.4 87 87 SSE 6 9 29.65 1004 10 16 0.00 0.00
2:53 am 02:53 Mostly Clear 72 22.2 66 18.9 82 82 S 5 7 29.64 1004 10 16 0.00 0.00
3:53 am 03:53 Partly Cloudy 74 23.3 63 17.2 69 69 S 10 17 29.65 1004 10 16 0.00 0.00
4:53 am 04:53 Cloudy 74 23.3 63 17.2 69 69 SSW 8 13 29.66 1004 10 16 0.00 0.00
5:53 am 05:53 Clear 73 22.8 63 17.2 71 71 SSW 9 15 29.67 1005 10 16 0.00 0.00
6:53 am 06:53 Sunny 74 23.3 64 17.8 71 71 SSW 9 15 29.69 1006 10 16 0.00 0.00
7:53 am 07:53 Sunny 74 23.3 65 18.3 74 74 SSW 12 19 29.72 1007 10 16 0.00 0.00
8:53 am 08:53 Sunny 75 23.9 65 18.3 71 71 S 13 20 29.73 1007 8 13 0.00 0.00
9:53 am 09:53 Sunny 78 25.6 66 18.9 67 67 SSW 18 30 29.73 1007 10 16 0.00 0.00
10:53 am 10:53 Sunny 81 27.2 66 18.9 61 61 SSW 17 28 29.72 1007 10 16 0.00 0.00
11:53 am 11:53 Sunny 84 28.9 66 18.9 55 55 SW 13 20 29.74 1007 10 16 0.00 0.00
12:53 pm 12:53 Sunny 85 29.4 64 17.8 50 50 SSW 21 33 29.75 1008 10 16 0.00 0.00
1:53 pm 13:53 Sunny 86 30 65 18.3 49 49 SW 20 31 29.76 1008 10 16 0.00 0.00
2:53 pm 14:53 Sunny 87 30.6 67 19.4 51 51 SSW 17 28 29.75 1008 10 16 0.00 0.00
3:53 pm 15:53 Sunny 87 30.6 65 18.3 48 48 SSW 21 33 29.75 1008 10 16 0.00 0.00
4:53 pm 16:53 Sunny 88 31.1 67 19.4 50 50 SSW 21 33 29.75 1007 10 16 0.00 0.00
5:53 pm 17:53 Sunny 87 30.6 65 18.3 48 48 SSW 14 22 29.75 1008 10 16 0.00 0.00
6:53 pm 18:53 Sunny 86 30 65 18.3 49 49 S 18 30 29.76 1008 10 16 0.00 0.00
7:53 pm 19:53 Sunny 84 28.9 64 17.8 51 51 S 14 22 29.78 1008 10 16 0.00 0.00
8:53 pm 20:53 Clear 82 27.8 63 17.2 53 53 S 13 20 29.80 1009 10 16 0.00 0.00
9:53 pm 21:53 Clear 81 27.2 63 17.2 54 54 S 12 19 29.81 1009 10 16 0.00 0.00
10:53 pm 22:53 Clear 79 26.1 63 17.2 58 58 S 9 15 29.82 1010 10 16 0.00 0.00
11:53 pm 23:53 Clear 77 25 63 17.2 62 62 S 8 13 29.84 1010 10 16 0.00 0.00

Powered by AerisWeather